Station BRHC3 - 8467150 - Bridgeport, CT Image indicating link to RSS feed of recent meteorological observations for station BRHC3


Conditions at BRHC3 as of
(8:30 am EDT)
1230 GMT on 06/21/2024:
     

Click on the graph icon in the table below to see a time series plot of the last five days of that observation.

5-day plot - Wind Direction Wind Direction (WDIR): SE ( 140 deg true )
5-day plot - Wind Speed Wind Speed (WSPD): 4.1 kts
5-day plot - Wind Gust Wind Gust (GST): 4.1 kts
5-day plot - Atmospheric Pressure Atmospheric Pressure (PRES):30.12 in
5-day plot - Air Temperature Air Temperature (ATMP): 76.3 °F
5-day plot - Water Temperature Water Temperature (WTMP): 67.5 °F
5-day plot - Wind Speed at 10 Meters Wind Speed at 10 meters (WSPD10M): 3.9 kts
5-day plot - Wind Speed at 20 Meters Wind Speed at 20 meters (WSPD20M): 3.9 kts
5-day plot -  Wind Speed, Wind Gust and Atmospheric Pressure Combined plot of Wind Speed, Gust, and Air Pressure
NOS Water Level Observation Network Water Level
Previous observations
TIME
(EDT)
5-day plot - Wind Direction
WDIR
 
5-day plot - Wind Speed
WSPD
kts
5-day plot - Wind Gust
GST
kts
5-day plot - Wave Height
WVHT
ft
5-day plot - Dominant Wave Period
DPD
sec
5-day plot - Average Wave Period
APD
sec
5-day plot - Mean Wave Direction
MWD
 
5-day plot - Atmospheric Pressure
PRES
in
5-day plot - Pressure Tendency
PTDY
in
5-day plot - Air Temperature
ATMP
°F
5-day plot - Water Temperature
WTMP
°F
5-day plot - Dew Point
DEWP
°F
5-day plot - Salinity
SAL
psu
5-day plot - Visibility
VIS
nmi
5-day plot - Tide (above MLLW)
TIDE
ft
2024-06-21 08:24 am SE 2.9 2.9----30.12- 76.3 67.1----
2024-06-21 08:18 amSSE 2.9 4.1----30.12- 75.2 67.6----
2024-06-21 08:12 am SE 2.9 4.1----30.12- 74.7 67.1----
2024-06-21 08:06 amSSE 2.9 2.9----30.13- 74.7 67.1----
2024-06-21 08:00 am SE 1.9 2.9----30.13+0.00 75.4 67.1----
2024-06-21 07:54 am SE 2.9 2.9----30.13- 75.4 67.1----
2024-06-21 07:48 amESE 1.9 2.9----30.13- 75.2 67.5----
2024-06-21 07:42 am SE 1.9 2.9----30.13- 74.8 67.1----
2024-06-21 07:36 amESE 2.9 4.1----30.13- 74.3 67.1----
2024-06-21 07:30 am SE 4.1 4.1----30.13- 73.9 67.6----
2024-06-21 07:24 amSSE 1.9 4.1----30.13- 73.9 67.8----
2024-06-21 07:18 amSSE 1.9 2.9----30.13- 73.8 67.5----
2024-06-21 07:12 am- 0.0 1.9----30.13- 74.5 68.7----
2024-06-21 07:06 am S 1.0 1.9----30.13- 74.3 68.0----
2024-06-21 07:00 am- 0.0 2.9----30.13+0.00 75.0 67.3----
2024-06-21 06:54 amWSW 1.0 2.9----30.13- 75.6 67.5----
2024-06-21 06:48 am SW 1.9 2.9----30.13- 74.8 67.5----
2024-06-21 06:42 am SW 1.9 2.9----30.13- 74.5 67.5----
2024-06-21 06:36 am- 0.0 1.9----30.13- 74.5 67.6----
2024-06-21 06:30 am W 1.0 1.9----30.13- 74.3 67.8----
2024-06-21 06:24 amNNW 1.0 2.9----30.14- 73.6 67.6----
2024-06-21 06:18 amNNW 1.9 1.9----30.13- 73.0 67.5----
2024-06-21 06:12 am N 1.0 1.9----30.13- 72.7 68.0----
2024-06-21 06:06 amNNW 1.9 1.9----30.13- 72.7 69.3----
2024-06-21 06:00 am N 1.9 2.9----30.13+0.00 72.5 68.7----
2024-06-21 05:54 am N 1.9 2.9----30.13- 72.3 68.5----
2024-06-21 05:48 am N 1.9 2.9----30.13- 72.1 68.4----
2024-06-21 05:42 am N 2.9 2.9----30.13- 71.8 68.5----
2024-06-21 05:36 am N 1.9 4.1----30.14- 71.8 68.5----
2024-06-21 05:30 amNNW 2.9 5.1----30.14- 71.8 68.5----
2024-06-21 05:24 amNNW 1.9 2.9----30.14- 71.8 68.4----
2024-06-21 05:18 amNNW 1.9 2.9----30.13- 71.6 68.4----
2024-06-21 05:12 amNNW 1.9 2.9----30.13- 71.6 68.4----
2024-06-21 05:06 am N 1.9 4.1----30.13- 71.6 68.4----
2024-06-21 05:00 am N 2.9 2.9----30.13-0.02 71.8 68.4----
2024-06-21 04:54 amNNW 1.9 2.9----30.13- 71.8 68.4----
2024-06-21 04:48 am W 1.9 2.9----30.13- 71.8 68.4----
2024-06-21 04:42 am NW 1.0 2.9----30.13- 71.6 68.2----
2024-06-21 04:36 am NW 1.9 4.1----30.13- 71.8 68.2----
2024-06-21 04:30 am NW 2.9 4.1----30.13- 71.8 68.0----
2024-06-21 04:24 amWNW 1.9 4.1----30.13- 72.1 68.0----
2024-06-21 04:18 amWNW 1.9 2.9----30.13- 72.1 67.8----
2024-06-21 04:12 amNNW 2.9 4.1----30.13- 72.3 67.8----
2024-06-21 04:06 am- 0.0 1.9----30.13- 72.3 67.8----
2024-06-21 04:00 am NW 1.0 1.9----30.13-0.02 72.1 67.8----
2024-06-21 03:54 amNNW 1.0 2.9----30.13- 72.1 67.6----
2024-06-21 03:48 amWNW 1.0 4.1----30.13- 72.1 67.6----
2024-06-21 03:42 amWSW 2.9 4.1----30.13- 72.1 67.5----
2024-06-21 03:36 am SW 2.9 6.0----30.13- 72.0 67.5----
2024-06-21 03:30 amWSW 2.9 4.1----30.13- 71.8 67.1----
2024-06-21 03:24 am SW 2.9 5.1----30.13- 71.6 67.3----
2024-06-21 03:18 amSSW 1.9 5.1----30.13- 71.6 67.1----
2024-06-21 03:12 am SW 4.1 6.0----30.13- 71.8 67.1----
2024-06-21 03:06 am SW 4.1 5.1----30.13- 71.8 67.3----
2024-06-21 03:00 amWSW 2.9 4.1----30.13-0.04 71.8 67.1----
2024-06-21 02:54 am SW 2.9 4.1----30.14- 71.8 66.7----
2024-06-21 02:48 amSSW 2.9 4.1----30.14- 71.4 66.0----
2024-06-21 02:42 amSSW 4.1 5.1----30.14- 71.4 66.0----
2024-06-21 02:36 am S 2.9 5.1----30.14- 71.6 66.2----
2024-06-21 02:30 am S 4.1 5.1----30.14- 71.4 65.8----
2024-06-21 02:24 amSSW 2.9 4.1----30.14- 72.0 65.5----
2024-06-21 02:18 amSSW 1.9 2.9----30.15- 72.0 65.5----
2024-06-21 02:12 amSSW 1.9 2.9----30.15- 72.0 65.7----
2024-06-21 02:06 amSSE 1.9 1.9----30.15- 71.6 65.8----
2024-06-21 02:00 am S 1.0 1.9----30.15-0.02 71.2 66.0----
2024-06-21 01:54 am- 0.0 1.9----30.15- 71.1 65.5----
2024-06-21 01:48 am- 0.0 1.9----30.15- 71.2 65.3----
2024-06-21 01:42 amESE 1.9 4.1----30.15- 71.6 65.5----
2024-06-21 01:36 amSSW 2.9 4.1----30.15- 72.1 65.7----
2024-06-21 01:30 amSSE 2.9 6.0----30.15- 71.8 65.3----
2024-06-21 01:24 am S 5.1 6.0----30.15- 71.8 65.3----
2024-06-21 01:18 amSSE 5.1 5.1----30.15- 71.1 65.3----
2024-06-21 01:12 amSSE 4.1 5.1----30.15- 72.0 65.3----
2024-06-21 01:06 am SE 2.9 4.1----30.16- 72.3 65.3----
2024-06-21 01:00 amSSE 2.9 4.1----30.16-0.02 72.3 65.3----
2024-06-21 12:54 am S 4.1 4.1----30.16- 72.5 65.3----
2024-06-21 12:48 am SE 1.9 2.9----30.16- 73.2 65.3----
2024-06-21 12:42 am SE 1.9 2.9----30.16- 73.2 65.5----
2024-06-21 12:36 am SE 2.9 2.9----30.16- 73.6 65.3----
2024-06-21 12:30 amESE 1.0 2.9----30.16- 73.4 65.3----
2024-06-21 12:24 am SE 2.9 4.1----30.16- 73.6 65.3----
2024-06-21 12:18 am E 2.9 4.1----30.16- 73.2 65.1----
2024-06-21 12:12 amSSE 1.9 2.9----30.17- 72.7 65.1----
2024-06-21 12:06 amSSE 2.9 2.9----30.17- 73.4 64.9----
2024-06-21 12:00 am SE 1.0 1.9----30.17+0.01 73.9 64.9----
2024-06-20 11:54 pmSSE 1.0 2.9----30.18- 73.8 64.9----
2024-06-20 11:48 pmSSE 1.9 1.9----30.18- 74.1 65.1----
2024-06-20 11:42 pmESE 1.9 2.9----30.18- 73.9 65.7----
2024-06-20 11:36 pm E 1.9 2.9----30.18- 73.9 65.3----
2024-06-20 11:30 pmSSE 1.9 1.9----30.18- 73.9 65.1----
2024-06-20 11:24 pmESE 1.0 2.9----30.18- 73.9 65.3----
2024-06-20 11:18 pm N 1.9 2.9----30.19- 73.9 65.5----
2024-06-20 11:12 pm S 1.9 5.1----30.18- 73.8 66.4----
2024-06-20 11:06 pmSSW 4.1 6.0----30.18- 73.9 66.6----
2024-06-20 11:00 pmSSW 5.1 6.0----30.17+0.03 74.1 66.0----
2024-06-20 10:54 pmSSW 4.1 5.1----30.17- 74.3 66.4----
2024-06-20 10:48 pmSSW 4.1 6.0----30.17- 74.5 65.5----
2024-06-20 10:42 pmSSW 4.1 6.0----30.17- 74.7 65.7----
2024-06-20 10:36 pm SW 2.9 7.0----30.17- 74.8 65.7----
2024-06-20 10:30 pmSSW 5.1 6.0----30.17- 74.8 65.8----
2024-06-20 10:24 pmSSW 5.1 6.0----30.17- 74.8 66.4----
2024-06-20 10:18 pm SW 4.1 7.0----30.18- 75.2 66.2----
2024-06-20 10:12 pmSSW 5.1 7.0----30.18- 75.4 66.2----
2024-06-20 10:06 pmSSW 5.1 7.0----30.18- 75.4 65.7----
2024-06-20 10:00 pmSSW 4.1 7.0----30.18+0.03 74.8 66.7----
2024-06-20 09:54 pmSSW 5.1 8.0----30.18- 75.2 65.7----
2024-06-20 09:48 pmSSW 5.1 7.0----30.18- 75.4 65.8----
2024-06-20 09:42 pm SW 4.1 7.0----30.17- 75.7 66.4----
2024-06-20 09:36 pmSSW 6.0 8.0----30.17- 75.6 66.7----
2024-06-20 09:30 pmSSW 6.0 8.0----30.17- 75.6 66.9----
2024-06-20 09:24 pmSSW 5.1 7.0----30.17- 75.7 67.3----
2024-06-20 09:18 pmSSW 5.1 8.9----30.17- 75.7 66.7----
2024-06-20 09:12 pmSSW 5.1 8.0----30.16- 75.4 66.6----
2024-06-20 09:06 pmSSW 5.1 8.0----30.16- 75.9 68.0----
2024-06-20 09:00 pmSSW 6.0 8.0----30.16+0.01 76.1 67.5----
2024-06-20 08:54 pm SW 5.1 8.0----30.16- 76.3 67.5----
2024-06-20 08:48 pmSSW 5.1 7.0----30.16- 76.5 67.6----
2024-06-20 08:42 pmSSW 5.1 7.0----30.16- 76.8 68.0----
2024-06-20 08:36 pmSSW 5.1 7.0----30.16- 76.8 67.8----
2024-06-20 08:30 pmSSW 4.1 6.0----30.16- 77.2 67.5----
2024-06-20 08:24 pm SW 5.1 8.0----30.15- 77.4 68.0----
2024-06-20 08:18 pm SW 5.1 8.9----30.15- 77.5 68.5----
2024-06-20 08:12 pmSSW 7.0 9.9----30.15- 77.5 67.6----
2024-06-20 08:06 pm SW 5.1 8.9----30.15- 77.9 68.9----
2024-06-20 08:00 pmSSW 6.0 8.9----30.14-0.02 77.9 68.4----
2024-06-20 07:54 pm SW 7.0 8.9----30.15- 78.1 68.4----
2024-06-20 07:48 pm SW 7.0 11.1----30.15- 78.4 68.4----
2024-06-20 07:42 pm SW 6.0 11.1----30.15- 78.8 68.4----
2024-06-20 07:36 pm SW 7.0 11.1----30.15- 78.8 68.0----
2024-06-20 07:30 pm SW 8.0 12.0----30.15- 79.0 68.5----
2024-06-20 07:24 pm SW 6.0 9.9----30.15- 79.2 69.1----
2024-06-20 07:00 pmSSW 7.0 11.1----30.15-0.03 79.5 69.3----
2024-06-20 06:54 pm SW 8.0 14.0----30.15- 79.9 68.4----
2024-06-20 06:48 pmSSW 8.9 13.0----30.15- 79.5 69.1----
2024-06-20 06:42 pmSSW 8.9 14.0----30.14- 79.5 68.7----
2024-06-20 06:36 pmSSW 8.9 15.0----30.15- 79.3 68.7----
2024-06-20 06:30 pm SW 8.9 12.0----30.15-- 69.8----
2024-06-20 06:24 pm SW 9.9 13.0----30.15-- 68.7----
2024-06-20 06:18 pmSSW 11.1 14.0----30.15-------
2024-06-20 06:12 pmSSW 11.1 14.0----30.15-------
2024-06-20 06:06 pmSSW 11.1 14.0----30.15-------
2024-06-20 06:00 pmSSW 9.9 15.0----30.15-0.05 81.5 69.8----
2024-06-20 05:54 pmSSW 9.9 15.0----30.15- 82.0 69.3----
2024-06-20 05:48 pmSSW 8.9 12.0----30.15- 82.0 69.8----
2024-06-20 05:42 pm SW 8.9 12.0----30.16- 82.4 69.3----
2024-06-20 05:36 pmSSW 8.0 12.0----30.16- 83.5 69.3----
2024-06-20 05:30 pm SW 8.0 12.0----30.16- 83.7 69.3----
2024-06-20 05:24 pmSSW 8.0 13.0----30.15- 83.7 69.3----
2024-06-20 05:18 pmSSW 7.0 11.1----30.16- 83.7 69.3----
2024-06-20 05:12 pm SW 8.0 12.0----30.16- 84.2 69.8----
2024-06-20 05:06 pmSSW 9.9 13.0----30.16- 84.2 69.8----
2024-06-20 05:00 pmSSW 9.9 14.0----30.16-0.05 84.4 69.6----
2024-06-20 04:54 pmSSW 8.9 14.0----30.16- 84.4 70.0----
2024-06-20 04:48 pm SW 9.9 13.0----30.16- 84.2 69.4----
2024-06-20 04:42 pmSSW 8.0 12.0----30.17- 84.0 68.9----
2024-06-20 04:36 pmSSW 9.9 14.0----30.17- 84.2 70.0----
2024-06-20 04:30 pmSSW 8.9 13.0----30.17- 84.4 69.1----
2024-06-20 04:24 pmSSW 8.0 12.0----30.17- 84.4 69.1----
2024-06-20 04:18 pmSSW 7.0 12.0----30.17- 84.7 68.9----
2024-06-20 04:12 pm S 8.0 12.0----30.17- 84.7 69.6----
2024-06-20 04:06 pm S 8.0 13.0----30.17- 84.6 69.3----
2024-06-20 04:00 pm S 8.0 11.1----30.17-0.06 84.4 68.7----
2024-06-20 03:54 pm S 8.0 11.1----30.17- 84.9 68.7----
2024-06-20 03:48 pm S 8.0 9.9----30.17- 84.7 68.9----
2024-06-20 03:42 pm S 7.0 9.9----30.18- 84.4 69.1----
2024-06-20 03:36 pmSSW 8.0 12.0----30.18- 84.4 69.1----
2024-06-20 03:30 pmSSW 7.0 11.1----30.18-- 69.8----
2024-06-20 03:24 pmSSW 7.0 9.9----30.18-- 68.0----
2024-06-20 03:18 pmSSW 8.0 8.9----30.19- 84.6 68.4----
2024-06-20 03:12 pmSSW 6.0 8.9----30.19- 84.0 68.4----
2024-06-20 03:06 pmSSW 7.0 11.1----30.19- 84.0 68.9----
2024-06-20 03:00 pmSSW 7.0 11.1----30.19-0.05 83.3 67.3----
2024-06-20 02:54 pmSSW 8.0 11.1----30.20- 82.4 68.0----
2024-06-20 02:48 pmSSW 7.0 12.0----30.20- 82.9 67.8----
2024-06-20 02:42 pm S 7.0 8.9----30.21- 82.8 67.5----
2024-06-20 02:36 pmSSW 8.0 9.9----30.21- 83.1 69.4----
2024-06-20 02:30 pmSSW 8.9 12.0----30.21- 83.1 67.1----
2024-06-20 02:24 pmSSW 8.0 11.1----30.21- 83.5 66.6----
2024-06-20 02:18 pmSSW 8.0 12.0----30.21- 82.8 66.2----
2024-06-20 02:12 pmSSW 8.0 11.1----30.21- 82.9 66.7----
2024-06-20 02:06 pmSSW 8.0 11.1----30.21- 83.1 66.7----
2024-06-20 02:00 pm S 8.0 12.0----30.21-0.04 82.8 66.0----
2024-06-20 01:54 pmSSW 8.0 11.1----30.21- 82.9 66.2----
2024-06-20 01:48 pm S 8.0 12.0----30.22- 82.8 66.4----
2024-06-20 01:42 pmSSW 8.0 12.0----30.22- 82.9 66.2----
2024-06-20 01:36 pmSSW 8.0 12.0----30.22- 83.1 66.9----
2024-06-20 01:30 pmSSW 8.9 12.0----30.22- 82.8 66.0----
2024-06-20 01:24 pmSSW 8.9 11.1----30.22- 82.4 66.2----
2024-06-20 01:18 pmSSW 8.9 12.0----30.22- 81.9 66.2----
2024-06-20 01:12 pmSSW 8.9 11.1----30.23- 81.7 66.2----
2024-06-20 01:06 pmSSW 8.9 13.0----30.23- 81.5 66.4----
2024-06-20 01:00 pmSSW 11.1 13.0----30.23-0.02 81.3 65.7----
2024-06-20 12:54 pmSSW 9.9 14.0----30.23- 81.7 65.7----
2024-06-20 12:48 pmSSW 8.9 13.0----30.23- 82.2 65.5----
2024-06-20 12:42 pmSSW 11.1 13.0----30.23- 82.0 65.8----
2024-06-20 12:36 pmSSW 8.9 13.0----30.24- 82.2 66.0----
2024-06-20 12:30 pmSSW 7.0 11.1----30.24- 82.0 66.2----
2024-06-20 12:24 pm SW 7.0 11.1----30.24- 82.2 67.3----
2024-06-20 12:18 pmSSW 8.9 12.0----30.24- 81.9 65.3----
2024-06-20 12:12 pmSSW 8.0 11.1----30.24- 81.7 65.8----
2024-06-20 12:06 pm SW 7.0 11.1----30.24- 81.7 65.8----
2024-06-20 12:00 pmSSW 7.0 13.0----30.25+0.00 80.8 65.8----
2024-06-20 11:54 amSSW 7.0 11.1----30.25- 80.8 65.8----
2024-06-20 11:48 am SW 8.9 12.0----30.25- 81.0 65.8----
2024-06-20 11:42 amSSW 8.9 12.0----30.25- 81.0 65.7----
2024-06-20 11:36 am SW 7.0 11.1----30.25- 80.6 65.7----
2024-06-20 11:30 amSSW 6.0 8.9----30.25- 79.2 65.7----
2024-06-20 11:24 amSSW 8.0 9.9----30.25- 79.7 66.6----
2024-06-20 11:18 am SW 8.0 12.0----30.25- 79.3 66.6----
2024-06-20 11:12 amSSW 7.0 12.0----30.25- 79.2 65.8----
2024-06-20 11:06 am SW 8.9 12.0----30.25- 78.6 66.0----
2024-06-20 11:00 am SW 8.9 13.0----30.25+0.00 78.4 66.0----
2024-06-20 10:54 am SW 7.0 13.0----30.25- 78.3 66.7----
2024-06-20 10:48 am SW 7.0 11.1----30.25- 77.9-----
2024-06-20 10:42 amSSW 8.0 9.9----30.25- 77.2-----
2024-06-20 10:36 amSSW 7.0 11.1----30.25- 76.8-----
2024-06-20 10:30 am SW 6.0 11.1----30.25- 77.0 66.2----
2024-06-20 10:24 amSSW 8.9 11.1----30.25- 76.1 65.8----
2024-06-20 10:18 amSSW 7.0 12.0----30.25- 75.9 66.0----
2024-06-20 10:12 am S 6.0 9.9----30.25- 75.4 65.1----
2024-06-20 10:06 amSSW 8.9 11.1----30.25- 75.0 65.1----
2024-06-20 10:00 am SW 7.0 9.9----30.25+0.00 74.8 64.9----
2024-06-20 09:54 am SW 8.0 9.9----30.25- 74.5 65.5----
2024-06-20 09:48 amSSW 8.0 11.1----30.25- 74.1 65.3----
2024-06-20 09:42 am SW 8.0 9.9----30.25- 73.9 64.9----
2024-06-20 09:36 amSSW 7.0 12.0----30.25- 73.4 65.3----
2024-06-20 09:30 am SW 9.9 12.0----30.25- 73.0 65.5----
2024-06-20 09:24 am SW 9.9 12.0----30.25- 73.0 65.5----
2024-06-20 09:18 am SW 8.0 11.1----30.25- 73.0 65.7----
2024-06-20 09:12 am SW 8.0 11.1----30.25- 72.9 65.1----
2024-06-20 09:06 am SW 7.0 9.9----30.25- 72.9 65.8----
2024-06-20 09:00 amSSW 8.0 9.9----30.25+0.00 72.1 66.2----
2024-06-20 08:54 amSSW 8.0 9.9----30.25- 72.3 66.0----